Weather in Vladimirskoye

Russia / Nizhny Novgorod Oblast'     56°49′13″N   45°07′02″E
temp.,
°C
wind,
m/s
gust,
m/s
humid.,
%
clouds,
%
prec.,
mm/h
press.,
hPa
HPBL,
m
8 may, sat
sat800:00+4sw22947 0.0 101625
03:00+4s11913 0.0 101710
06:00+6sse2387100 0.0 1017103
09:00+12se345867 0.0 1017747
12:00+15se343665 0.0 10161802
15:00+15se453798 0.0 10141882
18:00+14se485578 0.0 1012906
21:00+11se5127939 0.0 1010580
9 may, sun
sun900:00+11se51388100 0.1 1008488
03:00+10se51388100 0.1 1008481
06:00+11sse51392100 0.6 1007710
09:00+14sse51181100 1.0 1008805
12:00+16s4876100 0.3 10081023
15:00+13sse41194100 3.7 1008676
18:00+13sw3796100 3.1 1010453
21:00+10nw2498100 3.9 1012239
10 may, mon
mon1000:00+9nw3896100 0.1 1014575
03:00+7nw3795100 0.1 1018474
06:00+6nnw4994100 0.1 1021455
09:00+6nnw4893100 0.1 1024557
12:00+7n4687100 0.0 1026614
15:00+9nne467454 0.1 1027840
18:00+11ne36707 0.0 10281057
21:00+6ene22930 0.0 102943
11 may, tue
tue1100:00+4ne24950 0.0 103079
03:00+3ne389528 0.0 1031166
06:00+5ne398126 0.0 1032302
09:00+11ne474749 0.0 1032696
12:00+15ene45345 0.0 10321002
15:00+17ene45330 0.0 10311122
18:00+15e37500 0.0 1031373
21:00+9e35715 0.0 103272
12 may, wed
wed1200:00+7e26775 0.0 1032101
03:00+6e37800 0.0 1031114
06:00+9ene38720 0.0 1031200
09:00+16e46522 0.0 1031540
12:00+21e45463 0.0 10301023
15:00+22ese344722 0.0 10291472
18:00+20e2564100 0.0 1029174
21:00+14e3484100 0.0 102962